owner,sensor,date,latitude,longitude,vertical_datum,sea_water_temperature,qcFlag 
TABS,ioos:station:wmo:42051:1,2002-11-10T20:00:00Z,29.6350,-93.6417,-2.0,20.82,11111222 
TABS,ioos:station:wmo:42051:1,2002-11-10T20:30:00Z,29.6350,-93.6417,-2.0,20.75,11111222 
TABS,ioos:station:wmo:42051:1,2002-11-10T21:00:00Z,29.6350,-93.6417,-2.0,20.68,11111222 
TABS,ioos:station:wmo:42051:1,2002-11-10T21:30:00Z,29.6350,-93.6417,-2.0,20.65,11111222 
TABS,ioos:station:wmo:42051:1,2002-11-10T22:00:00Z,29.6350,-93.6417,-2.0,20.99,11111222 
TABS,ioos:station:wmo:42051:1,2002-11-10T22:30:00Z,29.6350,-93.6417,-2.0,20.99,11111222 
TABS,ioos:station:wmo:42051:1,2002-11-10T23:00:00Z,29.6350,-93.6417,-2.0,21.08,11111222 
TABS,ioos:station:wmo:42051:1,2002-11-10T23:30:00Z,29.6350,-93.6417,-2.0,21.23,11111222 
TABS,ioos:station:wmo:42051:1,2002-11-11T00:00:00Z,29.6350,-93.6417,-2.0,21.19,11111222 
TABS,ioos:station:wmo:42051:1,2002-11-11T00:30:00Z,29.6350,-93.6417,-2.0,21.38,11111222 
TABS,ioos:station:wmo:42051:1,2002-11-11T01:00:00Z,29.6350,-93.6417,-2.0,21.44,11111222 
TABS,ioos:station:wmo:42051:1,2002-11-11T01:30:00Z,29.6350,-93.6417,-2.0,21.42,11111222 
TABS,ioos:station:wmo:42051:1,2002-11-11T02:00:00Z,29.6350,-93.6417,-2.0,21.46,11111222 
TABS,ioos:station:wmo:42051:1,2002-11-11T02:30:00Z,29.6350,-93.6417,-2.0,21.37,11111222 
TABS,ioos:station:wmo:42051:1,2002-11-11T03:00:00Z,29.6350,-93.6417,-2.0,21.23,11111222 
TABS,ioos:station:wmo:42051:1,2002-11-11T03:30:00Z,29.6350,-93.6417,-2.0,21.23,11111222 
TABS,ioos:station:wmo:42051:1,2002-11-11T05:00:00Z,29.6350,-93.6417,-2.0,21.19,11111222 
TABS,ioos:station:wmo:42051:1,2002-11-11T05:30:00Z,29.6350,-93.6417,-2.0,21.18,11111222 
TABS,ioos:station:wmo:42051:1,2002-11-11T06:00:00Z,29.6350,-93.6417,-2.0,21.13,11111222 
TABS,ioos:station:wmo:42051:1,2002-11-11T06:30:00Z,29.6350,-93.6417,-2.0,21.12,11111222 
TABS,ioos:station:wmo:42051:1,2002-11-11T07:00:00Z,29.6350,-93.6417,-2.0,21.26,11111222 
TABS,ioos:station:wmo:42051:1,2002-11-11T07:30:00Z,29.6350,-93.6417,-2.0,21.25,11111222 
TABS,ioos:station:wmo:42051:1,2002-11-11T08:00:00Z,29.6350,-93.6417,-2.0,21.25,11111222 
TABS,ioos:station:wmo:42051:1,2002-11-11T08:30:00Z,29.6350,-93.6417,-2.0,21.22,11111222 
TABS,ioos:station:wmo:42051:1,2002-11-11T09:00:00Z,29.6350,-93.6417,-2.0,21.39,11111222 
TABS,ioos:station:wmo:42051:1,2002-11-11T09:30:00Z,29.6350,-93.6417,-2.0,21.91,11111222 
TABS,ioos:station:wmo:42051:1,2002-11-11T10:00:00Z,29.6350,-93.6417,-2.0,22.05,11111222 
TABS,ioos:station:wmo:42051:1,2002-11-11T10:30:00Z,29.6350,-93.6417,-2.0,22.1,11111222 
TABS,ioos:station:wmo:42051:1,2002-11-11T11:00:00Z,29.6350,-93.6417,-2.0,22.11,11111222 
TABS,ioos:station:wmo:42051:1,2002-11-11T11:30:00Z,29.6350,-93.6417,-2.0,22.06,11111222 
TABS,ioos:station:wmo:42051:1,2002-11-11T12:00:00Z,29.6350,-93.6417,-2.0,21.91,11111222 
TABS,ioos:station:wmo:42051:1,2002-11-11T12:30:00Z,29.6350,-93.6417,-2.0,21.71,11111222 
TABS,ioos:station:wmo:42051:1,2002-11-11T13:00:00Z,29.6350,-93.6417,-2.0,21.62,11111222 
TABS,ioos:station:wmo:42051:1,2002-11-11T13:30:00Z,29.6350,-93.6417,-2.0,21.64,11111222 
TABS,ioos:station:wmo:42051:1,2002-11-11T14:00:00Z,29.6350,-93.6417,-2.0,21.63,11111222 
TABS,ioos:station:wmo:42051:1,2002-11-11T14:30:00Z,29.6350,-93.6417,-2.0,21.57,11111222 
TABS,ioos:station:wmo:42051:1,2002-11-11T15:00:00Z,29.6350,-93.6417,-2.0,21.49,11111222 
TABS,ioos:station:wmo:42051:1,2002-11-11T15:30:00Z,29.6350,-93.6417,-2.0,21.47,11111222 
TABS,ioos:station:wmo:42051:1,2002-11-11T16:00:00Z,29.6350,-93.6417,-2.0,21.44,11111222 
TABS,ioos:station:wmo:42051:1,2002-11-11T16:30:00Z,29.6350,-93.6417,-2.0,21.42,11111222 
TABS,ioos:station:wmo:42051:1,2002-11-11T17:00:00Z,29.6350,-93.6417,-2.0,21.46,11111222 
TABS,ioos:station:wmo:42051:1,2002-11-11T17:30:00Z,29.6350,-93.6417,-2.0,21.5,11111222 
TABS,ioos:station:wmo:42051:1,2002-11-11T18:00:00Z,29.6350,-93.6417,-2.0,21.46,11111222 
TABS,ioos:station:wmo:42051:1,2002-11-11T18:30:00Z,29.6350,-93.6417,-2.0,21.44,11111222 
TABS,ioos:station:wmo:42051:1,2002-11-11T19:00:00Z,29.6350,-93.6417,-2.0,21.46,11111222 
TABS,ioos:station:wmo:42051:1,2002-11-11T19:30:00Z,29.6350,-93.6417,-2.0,21.49,11111222 
TABS,ioos:station:wmo:42051:1,2002-11-11T20:00:00Z,29.6350,-93.6417,-2.0,21.51,11111222 
TABS,ioos:station:wmo:42051:1,2002-11-11T20:30:00Z,29.6350,-93.6417,-2.0,21.5,11111222 
TABS,ioos:station:wmo:42051:1,2002-11-11T21:00:00Z,29.6350,-93.6417,-2.0,21.53,11111222 
TABS,ioos:station:wmo:42051:1,2002-11-11T21:30:00Z,29.6350,-93.6417,-2.0,21.55,11111222 
TABS,ioos:station:wmo:42051:1,2002-11-11T22:00:00Z,29.6350,-93.6417,-2.0,21.54,11111222 
TABS,ioos:station:wmo:42051:1,2002-11-11T22:30:00Z,29.6350,-93.6417,-2.0,21.57,11111222 
TABS,ioos:station:wmo:42051:1,2002-11-11T23:00:00Z,29.6350,-93.6417,-2.0,21.57,11111222 
TABS,ioos:station:wmo:42051:1,2002-11-11T23:30:00Z,29.6350,-93.6417,-2.0,21.52,11111222 
TABS,ioos:station:wmo:42051:1,2002-11-12T00:00:00Z,29.6350,-93.6417,-2.0,21.56,11111222 
TABS,ioos:station:wmo:42051:1,2002-11-12T00:30:00Z,29.6350,-93.6417,-2.0,21.54,11111222 
TABS,ioos:station:wmo:42051:1,2002-11-12T01:00:00Z,29.6350,-93.6417,-2.0,21.52,11111222 
TABS,ioos:station:wmo:42051:1,2002-11-12T01:30:00Z,29.6350,-93.6417,-2.0,21.56,11111222 
TABS,ioos:station:wmo:42051:1,2002-11-12T02:00:00Z,29.6350,-93.6417,-2.0,21.4,11111222 
TABS,ioos:station:wmo:42051:1,2002-11-12T02:30:00Z,29.6350,-93.6417,-2.0,21.41,11111222 
TABS,ioos:station:wmo:42051:1,2002-11-12T03:00:00Z,29.6350,-93.6417,-2.0,21.42,11111222 
TABS,ioos:station:wmo:42051:1,2002-11-12T03:30:00Z,29.6350,-93.6417,-2.0,21.4,11111222 
TABS,ioos:station:wmo:42051:1,2002-11-12T04:00:00Z,29.6350,-93.6417,-2.0,21.42,11111222 
TABS,ioos:station:wmo:42051:1,2002-11-12T04:30:00Z,29.6350,-93.6417,-2.0,21.43,11111222 
TABS,ioos:station:wmo:42051:1,2002-11-12T05:00:00Z,29.6350,-93.6417,-2.0,21.39,11111222 
TABS,ioos:station:wmo:42051:1,2002-11-12T05:30:00Z,29.6350,-93.6417,-2.0,21.38,11111222 
TABS,ioos:station:wmo:42051:1,2002-11-12T06:00:00Z,29.6350,-93.6417,-2.0,21.34,11111222 
TABS,ioos:station:wmo:42051:1,2002-11-12T06:30:00Z,29.6350,-93.6417,-2.0,21.3,11111222 
TABS,ioos:station:wmo:42051:1,2002-11-12T07:00:00Z,29.6350,-93.6417,-2.0,21.27,11111222 
TABS,ioos:station:wmo:42051:1,2002-11-12T07:30:00Z,29.6350,-93.6417,-2.0,21.25,11111222 
TABS,ioos:station:wmo:42051:1,2002-11-12T08:00:00Z,29.6350,-93.6417,-2.0,21.22,11111222 
TABS,ioos:station:wmo:42051:1,2002-11-12T08:30:00Z,29.6350,-93.6417,-2.0,21.19,11111222 
TABS,ioos:station:wmo:42051:1,2002-11-12T09:00:00Z,29.6350,-93.6417,-2.0,21.16,11111222 
TABS,ioos:station:wmo:42051:1,2002-11-12T09:30:00Z,29.6350,-93.6417,-2.0,21.14,11111222 
TABS,ioos:station:wmo:42051:1,2002-11-12T10:00:00Z,29.6350,-93.6417,-2.0,21.13,11111222 
TABS,ioos:station:wmo:42051:1,2002-11-12T10:30:00Z,29.6350,-93.6417,-2.0,21.12,11111222 
TABS,ioos:station:wmo:42051:1,2002-11-12T11:00:00Z,29.6350,-93.6417,-2.0,21.0,11111222 
TABS,ioos:station:wmo:42051:1,2002-11-12T11:30:00Z,29.6350,-93.6417,-2.0,20.95,11111222 
TABS,ioos:station:wmo:42051:1,2002-11-12T12:00:00Z,29.6350,-93.6417,-2.0,20.92,11111222 
TABS,ioos:station:wmo:42051:1,2002-11-12T12:30:00Z,29.6350,-93.6417,-2.0,20.79,11111222 
TABS,ioos:station:wmo:42051:1,2002-11-12T13:00:00Z,29.6350,-93.6417,-2.0,20.78,11111222 
TABS,ioos:station:wmo:42051:1,2002-11-12T13:30:00Z,29.6350,-93.6417,-2.0,20.8,11111222 
TABS,ioos:station:wmo:42051:1,2002-11-12T14:00:00Z,29.6350,-93.6417,-2.0,20.77,11111222 
TABS,ioos:station:wmo:42051:1,2002-11-12T14:30:00Z,29.6350,-93.6417,-2.0,20.78,11111222 
TABS,ioos:station:wmo:42051:1,2002-11-12T15:00:00Z,29.6350,-93.6417,-2.0,20.78,11111222 
TABS,ioos:station:wmo:42051:1,2002-11-12T15:30:00Z,29.6350,-93.6417,-2.0,20.8,11111222 
TABS,ioos:station:wmo:42051:1,2002-11-12T16:00:00Z,29.6350,-93.6417,-2.0,20.77,11111222 
TABS,ioos:station:wmo:42051:1,2002-11-12T16:30:00Z,29.6350,-93.6417,-2.0,20.82,11111222 
TABS,ioos:station:wmo:42051:1,2002-11-12T17:00:00Z,29.6350,-93.6417,-2.0,20.84,11111222 
TABS,ioos:station:wmo:42051:1,2002-11-12T17:30:00Z,29.6350,-93.6417,-2.0,20.9,11111222 
TABS,ioos:station:wmo:42051:1,2002-11-12T18:00:00Z,29.6350,-93.6417,-2.0,20.81,11111222 
TABS,ioos:station:wmo:42051:1,2002-11-12T18:30:00Z,29.6350,-93.6417,-2.0,20.9,11111222 
TABS,ioos:station:wmo:42051:1,2002-11-12T19:00:00Z,29.6350,-93.6417,-2.0,20.89,11111222 
TABS,ioos:station:wmo:42051:1,2002-11-12T19:30:00Z,29.6350,-93.6417,-2.0,20.94,11111222 
TABS,ioos:station:wmo:42051:1,2002-11-12T20:00:00Z,29.6350,-93.6417,-2.0,20.98,11111222 
TABS,ioos:station:wmo:42051:1,2002-11-12T20:30:00Z,29.6350,-93.6417,-2.0,21.02,11111222 
TABS,ioos:station:wmo:42051:1,2002-11-12T21:00:00Z,29.6350,-93.6417,-2.0,21.05,11111222 
TABS,ioos:station:wmo:42051:1,2002-11-12T21:30:00Z,29.6350,-93.6417,-2.0,21.01,11111222 
TABS,ioos:station:wmo:42051:1,2002-11-12T22:00:00Z,29.6350,-93.6417,-2.0,20.97,11111222 
TABS,ioos:station:wmo:42051:1,2002-11-12T22:30:00Z,29.6350,-93.6417,-2.0,20.94,11111222 
TABS,ioos:station:wmo:42051:1,2002-11-12T23:00:00Z,29.6350,-93.6417,-2.0,20.91,11111222 
TABS,ioos:station:wmo:42051:1,2002-11-12T23:30:00Z,29.6350,-93.6417,-2.0,20.9,11111222 
TABS,ioos:station:wmo:42051:1,2002-11-13T00:00:00Z,29.6350,-93.6417,-2.0,20.89,11111222 
TABS,ioos:station:wmo:42051:1,2002-11-13T00:30:00Z,29.6350,-93.6417,-2.0,20.85,11111222 
TABS,ioos:station:wmo:42051:1,2002-11-13T01:00:00Z,29.6350,-93.6417,-2.0,20.81,11111222 
TABS,ioos:station:wmo:42051:1,2002-11-13T01:30:00Z,29.6350,-93.6417,-2.0,20.75,11111222 
TABS,ioos:station:wmo:42051:1,2002-11-13T02:00:00Z,29.6350,-93.6417,-2.0,20.72,11111222 
TABS,ioos:station:wmo:42051:1,2002-11-13T02:30:00Z,29.6350,-93.6417,-2.0,20.72,11111222 
TABS,ioos:station:wmo:42051:1,2002-11-13T03:00:00Z,29.6350,-93.6417,-2.0,20.73,11111222 
TABS,ioos:station:wmo:42051:1,2002-11-13T03:30:00Z,29.6350,-93.6417,-2.0,20.74,11111222 
TABS,ioos:station:wmo:42051:1,2002-11-13T04:00:00Z,29.6350,-93.6417,-2.0,20.68,11111222 
TABS,ioos:station:wmo:42051:1,2002-11-13T04:30:00Z,29.6350,-93.6417,-2.0,20.63,11111222 
TABS,ioos:station:wmo:42051:1,2002-11-13T05:00:00Z,29.6350,-93.6417,-2.0,20.61,11111222 
TABS,ioos:station:wmo:42051:1,2002-11-13T05:30:00Z,29.6350,-93.6417,-2.0,20.62,11111222 
TABS,ioos:station:wmo:42051:1,2002-11-13T08:30:00Z,29.6350,-93.6417,-2.0,20.5,11111222 
TABS,ioos:station:wmo:42051:1,2002-11-13T09:00:00Z,29.6350,-93.6417,-2.0,20.49,11111222 
TABS,ioos:station:wmo:42051:1,2002-11-13T09:30:00Z,29.6350,-93.6417,-2.0,20.49,11111222 
TABS,ioos:station:wmo:42051:1,2002-11-13T10:00:00Z,29.6350,-93.6417,-2.0,20.45,11111222 
TABS,ioos:station:wmo:42051:1,2002-11-13T10:30:00Z,29.6350,-93.6417,-2.0,20.43,11111222 
TABS,ioos:station:wmo:42051:1,2002-11-13T11:00:00Z,29.6350,-93.6417,-2.0,20.3,11111222 
TABS,ioos:station:wmo:42051:1,2002-11-13T11:30:00Z,29.6350,-93.6417,-2.0,20.28,11111222 
TABS,ioos:station:wmo:42051:1,2002-11-13T12:00:00Z,29.6350,-93.6417,-2.0,20.25,11111222 
TABS,ioos:station:wmo:42051:1,2002-11-13T12:30:00Z,29.6350,-93.6417,-2.0,20.23,11111222 
TABS,ioos:station:wmo:42051:1,2002-11-13T13:00:00Z,29.6350,-93.6417,-2.0,20.14,11111222 
TABS,ioos:station:wmo:42051:1,2002-11-13T13:30:00Z,29.6350,-93.6417,-2.0,20.15,11111222 
TABS,ioos:station:wmo:42051:1,2002-11-13T14:00:00Z,29.6350,-93.6417,-2.0,20.14,11111222 
TABS,ioos:station:wmo:42051:1,2002-11-13T14:30:00Z,29.6350,-93.6417,-2.0,20.16,11111222 
TABS,ioos:station:wmo:42051:1,2002-11-13T15:00:00Z,29.6350,-93.6417,-2.0,20.16,11111222 
TABS,ioos:station:wmo:42051:1,2002-11-13T15:30:00Z,29.6350,-93.6417,-2.0,20.2,11111222 
TABS,ioos:station:wmo:42051:1,2002-11-13T16:00:00Z,29.6350,-93.6417,-2.0,20.25,11111222 
TABS,ioos:station:wmo:42051:1,2002-11-13T16:30:00Z,29.6350,-93.6417,-2.0,20.3,11111222 
TABS,ioos:station:wmo:42051:1,2002-11-13T17:00:00Z,29.6350,-93.6417,-2.0,20.36,11111222 
TABS,ioos:station:wmo:42051:1,2002-11-13T17:30:00Z,29.6350,-93.6417,-2.0,20.42,11111222 
TABS,ioos:station:wmo:42051:1,2002-11-13T18:00:00Z,29.6350,-93.6417,-2.0,20.4,11111222 
TABS,ioos:station:wmo:42051:1,2002-11-13T18:30:00Z,29.6350,-93.6417,-2.0,20.52,11111222 
TABS,ioos:station:wmo:42051:1,2002-11-13T19:00:00Z,29.6350,-93.6417,-2.0,20.46,11111222 
TABS,ioos:station:wmo:42051:1,2002-11-13T19:30:00Z,29.6350,-93.6417,-2.0,20.6,11111222 
TABS,ioos:station:wmo:42051:1,2002-11-13T20:00:00Z,29.6350,-93.6417,-2.0,20.5,11111222 
TABS,ioos:station:wmo:42051:1,2002-11-13T20:30:00Z,29.6350,-93.6417,-2.0,20.49,11111222 
TABS,ioos:station:wmo:42051:1,2002-11-13T21:00:00Z,29.6350,-93.6417,-2.0,20.71,11111222 
TABS,ioos:station:wmo:42051:1,2002-11-13T21:30:00Z,29.6350,-93.6417,-2.0,20.59,11111222 
TABS,ioos:station:wmo:42051:1,2002-11-13T22:00:00Z,29.6350,-93.6417,-2.0,20.46,11111222 
TABS,ioos:station:wmo:42051:1,2002-11-13T22:30:00Z,29.6350,-93.6417,-2.0,20.42,11111222 
TABS,ioos:station:wmo:42051:1,2002-11-13T23:00:00Z,29.6350,-93.6417,-2.0,20.49,11111222 
TABS,ioos:station:wmo:42051:1,2002-11-13T23:30:00Z,29.6350,-93.6417,-2.0,20.43,11111222 
TABS,ioos:station:wmo:42051:1,2002-11-14T00:00:00Z,29.6350,-93.6417,-2.0,20.67,11111222 
TABS,ioos:station:wmo:42051:1,2002-11-14T00:30:00Z,29.6350,-93.6417,-2.0,20.68,11111222 
TABS,ioos:station:wmo:42051:1,2002-11-14T01:00:00Z,29.6350,-93.6417,-2.0,20.52,11111222 
TABS,ioos:station:wmo:42051:1,2002-11-14T01:30:00Z,29.6350,-93.6417,-2.0,20.39,11111222 
TABS,ioos:station:wmo:42051:1,2002-11-14T02:00:00Z,29.6350,-93.6417,-2.0,20.3,11111222 
TABS,ioos:station:wmo:42051:1,2002-11-14T02:30:00Z,29.6350,-93.6417,-2.0,20.24,11111222 
TABS,ioos:station:wmo:42051:1,2002-11-14T03:00:00Z,29.6350,-93.6417,-2.0,20.21,11111222 
TABS,ioos:station:wmo:42051:1,2002-11-14T03:30:00Z,29.6350,-93.6417,-2.0,20.26,11111222 
TABS,ioos:station:wmo:42051:1,2002-11-14T04:00:00Z,29.6350,-93.6417,-2.0,20.33,11111222 
TABS,ioos:station:wmo:42051:1,2002-11-14T04:30:00Z,29.6350,-93.6417,-2.0,20.15,11111222 
TABS,ioos:station:wmo:42051:1,2002-11-14T05:00:00Z,29.6350,-93.6417,-2.0,20.2,11111222 
TABS,ioos:station:wmo:42051:1,2002-11-14T05:30:00Z,29.6350,-93.6417,-2.0,20.22,11111222 
TABS,ioos:station:wmo:42051:1,2002-11-14T06:00:00Z,29.6350,-93.6417,-2.0,20.24,11111222 
TABS,ioos:station:wmo:42051:1,2002-11-14T06:30:00Z,29.6350,-93.6417,-2.0,20.22,11111222 
TABS,ioos:station:wmo:42051:1,2002-11-14T07:00:00Z,29.6350,-93.6417,-2.0,20.21,11111222 
TABS,ioos:station:wmo:42051:1,2002-11-14T07:30:00Z,29.6350,-93.6417,-2.0,20.16,11111222 
TABS,ioos:station:wmo:42051:1,2002-11-14T08:00:00Z,29.6350,-93.6417,-2.0,20.09,11111222 
TABS,ioos:station:wmo:42051:1,2002-11-14T08:30:00Z,29.6350,-93.6417,-2.0,20.11,11111222 
TABS,ioos:station:wmo:42051:1,2002-11-14T09:00:00Z,29.6350,-93.6417,-2.0,20.06,11111222 
TABS,ioos:station:wmo:42051:1,2002-11-14T09:30:00Z,29.6350,-93.6417,-2.0,20.05,11111222 
TABS,ioos:station:wmo:42051:1,2002-11-14T10:00:00Z,29.6350,-93.6417,-2.0,20.05,11111222 
TABS,ioos:station:wmo:42051:1,2002-11-14T10:30:00Z,29.6350,-93.6417,-2.0,20.04,11111222 
TABS,ioos:station:wmo:42051:1,2002-11-14T11:00:00Z,29.6350,-93.6417,-2.0,20.01,11111222 
TABS,ioos:station:wmo:42051:1,2002-11-14T11:30:00Z,29.6350,-93.6417,-2.0,19.99,11111222 
TABS,ioos:station:wmo:42051:1,2002-11-14T12:00:00Z,29.6350,-93.6417,-2.0,19.93,11111222 
TABS,ioos:station:wmo:42051:1,2002-11-14T12:30:00Z,29.6350,-93.6417,-2.0,19.92,11111222 
TABS,ioos:station:wmo:42051:1,2002-11-14T13:00:00Z,29.6350,-93.6417,-2.0,19.94,11111222 
TABS,ioos:station:wmo:42051:1,2002-11-14T13:30:00Z,29.6350,-93.6417,-2.0,19.94,11111222 
TABS,ioos:station:wmo:42051:1,2002-11-14T14:00:00Z,29.6350,-93.6417,-2.0,19.93,11111222 
TABS,ioos:station:wmo:42051:1,2002-11-14T14:30:00Z,29.6350,-93.6417,-2.0,19.96,11111222 
TABS,ioos:station:wmo:42051:1,2002-11-14T15:00:00Z,29.6350,-93.6417,-2.0,20.02,11111222 
TABS,ioos:station:wmo:42051:1,2002-11-14T15:30:00Z,29.6350,-93.6417,-2.0,20.03,11111222 
TABS,ioos:station:wmo:42051:1,2002-11-14T16:00:00Z,29.6350,-93.6417,-2.0,20.02,11111222 
TABS,ioos:station:wmo:42051:1,2002-11-14T16:30:00Z,29.6350,-93.6417,-2.0,20.07,11111222 
TABS,ioos:station:wmo:42051:1,2002-11-14T17:00:00Z,29.6350,-93.6417,-2.0,20.02,11111222 
TABS,ioos:station:wmo:42051:1,2002-11-14T17:30:00Z,29.6350,-93.6417,-2.0,20.11,11111222 
TABS,ioos:station:wmo:42051:1,2002-11-14T18:00:00Z,29.6350,-93.6417,-2.0,20.17,11111222 
TABS,ioos:station:wmo:42051:1,2002-11-14T18:30:00Z,29.6350,-93.6417,-2.0,20.24,11111222 
TABS,ioos:station:wmo:42051:1,2002-11-14T19:00:00Z,29.6350,-93.6417,-2.0,20.3,11111222 
TABS,ioos:station:wmo:42051:1,2002-11-14T19:30:00Z,29.6350,-93.6417,-2.0,20.42,11111222 
TABS,ioos:station:wmo:42051:1,2002-11-14T20:00:00Z,29.6350,-93.6417,-2.0,20.33,11111222 
TABS,ioos:station:wmo:42051:1,2002-11-14T20:30:00Z,29.6350,-93.6417,-2.0,20.23,11111222 
TABS,ioos:station:wmo:42051:1,2002-11-14T21:00:00Z,29.6350,-93.6417,-2.0,20.32,11111222 
TABS,ioos:station:wmo:42051:1,2002-11-14T21:30:00Z,29.6350,-93.6417,-2.0,20.31,11111222 
TABS,ioos:station:wmo:42051:1,2002-11-14T22:00:00Z,29.6350,-93.6417,-2.0,20.31,11111222 
TABS,ioos:station:wmo:42051:1,2002-11-14T22:30:00Z,29.6350,-93.6417,-2.0,20.31,11111222 
TABS,ioos:station:wmo:42051:1,2002-11-14T23:00:00Z,29.6350,-93.6417,-2.0,20.32,11111222 
TABS,ioos:station:wmo:42051:1,2002-11-14T23:30:00Z,29.6350,-93.6417,-2.0,20.33,11111222 
TABS,ioos:station:wmo:42051:1,2002-11-15T00:00:00Z,29.6350,-93.6417,-2.0,20.32,11111222 
TABS,ioos:station:wmo:42051:1,2002-11-15T00:30:00Z,29.6350,-93.6417,-2.0,20.32,11111222 
TABS,ioos:station:wmo:42051:1,2002-11-15T01:00:00Z,29.6350,-93.6417,-2.0,20.32,11111222 
TABS,ioos:station:wmo:42051:1,2002-11-15T01:30:00Z,29.6350,-93.6417,-2.0,20.33,11111222 
TABS,ioos:station:wmo:42051:1,2002-11-15T02:00:00Z,29.6350,-93.6417,-2.0,20.33,11111222 
TABS,ioos:station:wmo:42051:1,2002-11-15T02:30:00Z,29.6350,-93.6417,-2.0,20.32,11111222 
TABS,ioos:station:wmo:42051:1,2002-11-15T03:00:00Z,29.6350,-93.6417,-2.0,20.31,11111222 
TABS,ioos:station:wmo:42051:1,2002-11-15T03:30:00Z,29.6350,-93.6417,-2.0,20.34,11111222 
TABS,ioos:station:wmo:42051:1,2002-11-15T04:00:00Z,29.6350,-93.6417,-2.0,20.32,11111222 
TABS,ioos:station:wmo:42051:1,2002-11-15T04:30:00Z,29.6350,-93.6417,-2.0,20.27,11111222 
TABS,ioos:station:wmo:42051:1,2002-11-15T05:00:00Z,29.6350,-93.6417,-2.0,20.26,11111222 
TABS,ioos:station:wmo:42051:1,2002-11-15T05:30:00Z,29.6350,-93.6417,-2.0,20.22,11111222 
TABS,ioos:station:wmo:42051:1,2002-11-15T06:00:00Z,29.6350,-93.6417,-2.0,20.16,11111222 
TABS,ioos:station:wmo:42051:1,2002-11-15T06:30:00Z,29.6350,-93.6417,-2.0,20.13,11111222 
TABS,ioos:station:wmo:42051:1,2002-11-15T07:00:00Z,29.6350,-93.6417,-2.0,20.07,11111222 
TABS,ioos:station:wmo:42051:1,2002-11-15T07:30:00Z,29.6350,-93.6417,-2.0,20.07,11111222 
TABS,ioos:station:wmo:42051:1,2002-11-15T08:00:00Z,29.6350,-93.6417,-2.0,20.02,11111222 
TABS,ioos:station:wmo:42051:1,2002-11-15T08:30:00Z,29.6350,-93.6417,-2.0,19.96,11111222 
TABS,ioos:station:wmo:42051:1,2002-11-15T09:00:00Z,29.6350,-93.6417,-2.0,19.97,11111222 
TABS,ioos:station:wmo:42051:1,2002-11-15T09:30:00Z,29.6350,-93.6417,-2.0,19.96,11111222 
TABS,ioos:station:wmo:42051:1,2002-11-15T10:00:00Z,29.6350,-93.6417,-2.0,19.94,11111222 
TABS,ioos:station:wmo:42051:1,2002-11-15T10:30:00Z,29.6350,-93.6417,-2.0,19.94,11111222 
TABS,ioos:station:wmo:42051:1,2002-11-15T11:00:00Z,29.6350,-93.6417,-2.0,19.89,11111222 
TABS,ioos:station:wmo:42051:1,2002-11-15T11:30:00Z,29.6350,-93.6417,-2.0,19.86,11111222 
TABS,ioos:station:wmo:42051:1,2002-11-15T12:00:00Z,29.6350,-93.6417,-2.0,19.89,11111222 
TABS,ioos:station:wmo:42051:1,2002-11-15T12:30:00Z,29.6350,-93.6417,-2.0,19.87,11111222 
TABS,ioos:station:wmo:42051:1,2002-11-15T13:00:00Z,29.6350,-93.6417,-2.0,19.86,11111222 
TABS,ioos:station:wmo:42051:1,2002-11-15T13:30:00Z,29.6350,-93.6417,-2.0,19.85,11111222 
TABS,ioos:station:wmo:42051:1,2002-11-15T14:00:00Z,29.6350,-93.6417,-2.0,19.87,11111222 
TABS,ioos:station:wmo:42051:1,2002-11-15T14:30:00Z,29.6350,-93.6417,-2.0,19.86,11111222 
TABS,ioos:station:wmo:42051:1,2002-11-15T15:00:00Z,29.6350,-93.6417,-2.0,19.89,11111222 
TABS,ioos:station:wmo:42051:1,2002-11-15T15:30:00Z,29.6350,-93.6417,-2.0,19.91,11111222 
TABS,ioos:station:wmo:42051:1,2002-11-15T16:00:00Z,29.6350,-93.6417,-2.0,19.94,11111222 
TABS,ioos:station:wmo:42051:1,2002-11-15T16:30:00Z,29.6350,-93.6417,-2.0,19.96,11111222 
TABS,ioos:station:wmo:42051:1,2002-11-15T17:00:00Z,29.6350,-93.6417,-2.0,20.01,11111222 
TABS,ioos:station:wmo:42051:1,2002-11-15T17:30:00Z,29.6350,-93.6417,-2.0,20.04,11111222 
TABS,ioos:station:wmo:42051:1,2002-11-15T21:30:00Z,29.6350,-93.6417,-2.0,19.82,11111222 
TABS,ioos:station:wmo:42051:1,2002-11-15T22:00:00Z,29.6350,-93.6417,-2.0,19.8,11111222 
TABS,ioos:station:wmo:42051:1,2002-11-15T22:30:00Z,29.6350,-93.6417,-2.0,19.77,11111222 
TABS,ioos:station:wmo:42051:1,2002-11-15T23:00:00Z,29.6350,-93.6417,-2.0,19.75,11111222 
TABS,ioos:station:wmo:42051:1,2002-11-15T23:30:00Z,29.6350,-93.6417,-2.0,19.73,11111222 
TABS,ioos:station:wmo:42051:1,2002-11-16T00:00:00Z,29.6350,-93.6417,-2.0,19.73,11111222 
TABS,ioos:station:wmo:42051:1,2002-11-16T00:30:00Z,29.6350,-93.6417,-2.0,19.8,11111222 
TABS,ioos:station:wmo:42051:1,2002-11-16T01:00:00Z,29.6350,-93.6417,-2.0,19.75,11111222 
TABS,ioos:station:wmo:42051:1,2002-11-16T01:30:00Z,29.6350,-93.6417,-2.0,19.82,11111222 
TABS,ioos:station:wmo:42051:1,2002-11-16T02:00:00Z,29.6350,-93.6417,-2.0,19.78,11111222 
TABS,ioos:station:wmo:42051:1,2002-11-16T02:30:00Z,29.6350,-93.6417,-2.0,19.84,11111222 
TABS,ioos:station:wmo:42051:1,2002-11-16T03:00:00Z,29.6350,-93.6417,-2.0,19.81,11111222 
TABS,ioos:station:wmo:42051:1,2002-11-16T03:30:00Z,29.6350,-93.6417,-2.0,19.78,11111222 
TABS,ioos:station:wmo:42051:1,2002-11-16T04:00:00Z,29.6350,-93.6417,-2.0,19.76,11111222 
TABS,ioos:station:wmo:42051:1,2002-11-16T04:30:00Z,29.6350,-93.6417,-2.0,19.75,11111222 
TABS,ioos:station:wmo:42051:1,2002-11-16T05:00:00Z,29.6350,-93.6417,-2.0,19.75,11111222 
TABS,ioos:station:wmo:42051:1,2002-11-16T05:30:00Z,29.6350,-93.6417,-2.0,19.74,11111222 
TABS,ioos:station:wmo:42051:1,2002-11-16T11:30:00Z,29.6350,-93.6417,-2.0,19.47,11111222 
TABS,ioos:station:wmo:42051:1,2002-11-16T12:00:00Z,29.6350,-93.6417,-2.0,19.43,11111222 
TABS,ioos:station:wmo:42051:1,2002-11-16T12:30:00Z,29.6350,-93.6417,-2.0,19.4,11111222 
TABS,ioos:station:wmo:42051:1,2002-11-16T13:00:00Z,29.6350,-93.6417,-2.0,19.37,11111222 
TABS,ioos:station:wmo:42051:1,2002-11-16T13:30:00Z,29.6350,-93.6417,-2.0,19.36,11111222 
TABS,ioos:station:wmo:42051:1,2002-11-16T14:00:00Z,29.6350,-93.6417,-2.0,19.34,11111222 
TABS,ioos:station:wmo:42051:1,2002-11-16T14:30:00Z,29.6350,-93.6417,-2.0,19.33,11111222 
TABS,ioos:station:wmo:42051:1,2002-11-16T15:00:00Z,29.6350,-93.6417,-2.0,19.31,11111222 
TABS,ioos:station:wmo:42051:1,2002-11-16T15:30:00Z,29.6350,-93.6417,-2.0,19.3,11111222 
TABS,ioos:station:wmo:42051:1,2002-11-16T16:00:00Z,29.6350,-93.6417,-2.0,19.28,11111222 
TABS,ioos:station:wmo:42051:1,2002-11-16T16:30:00Z,29.6350,-93.6417,-2.0,19.29,11111222 
TABS,ioos:station:wmo:42051:1,2002-11-16T17:00:00Z,29.6350,-93.6417,-2.0,19.29,11111222 
TABS,ioos:station:wmo:42051:1,2002-11-16T17:30:00Z,29.6350,-93.6417,-2.0,19.28,11111222 
TABS,ioos:station:wmo:42051:1,2002-11-16T18:00:00Z,29.6350,-93.6417,-2.0,19.31,11111222 
TABS,ioos:station:wmo:42051:1,2002-11-16T18:30:00Z,29.6350,-93.6417,-2.0,19.32,11111222 
TABS,ioos:station:wmo:42051:1,2002-11-16T19:00:00Z,29.6350,-93.6417,-2.0,19.34,11111222 
TABS,ioos:station:wmo:42051:1,2002-11-16T19:30:00Z,29.6350,-93.6417,-2.0,19.34,11111222 
TABS,ioos:station:wmo:42051:1,2002-11-16T20:00:00Z,29.6350,-93.6417,-2.0,19.35,11111222 
TABS,ioos:station:wmo:42051:1,2002-11-16T20:30:00Z,29.6350,-93.6417,-2.0,19.36,11111222 
TABS,ioos:station:wmo:42051:1,2002-11-16T21:00:00Z,29.6350,-93.6417,-2.0,19.36,11111222 
TABS,ioos:station:wmo:42051:1,2002-11-16T21:30:00Z,29.6350,-93.6417,-2.0,19.35,11111222 
TABS,ioos:station:wmo:42051:1,2002-11-16T22:00:00Z,29.6350,-93.6417,-2.0,19.34,11111222 
TABS,ioos:station:wmo:42051:1,2002-11-16T22:30:00Z,29.6350,-93.6417,-2.0,19.33,11111222 